Dublin, VA

6:53 PM EDT on August 22, 2017 (GMT -0400)
New River Valley

Weather History for KPSK - December, 2011

Change the Weather History Date:

Saturday, December 17, 2011

  Actual Average (KBCB) Record (KBCB)
Temperature  
Mean Temperature 34 °F -  
Max Temperature 39 °F 43 °F 70 °F (1971)
Min Temperature 30 °F 24 °F 0 °F (1989)
Degree Days  
Heating Degree Days 30    
Moisture  
Dew Point 28 °F    
Average Humidity 74    
Maximum Humidity 93    
Minimum Humidity 56    
Precipitation  
Precipitation 0.00 in - - ()
Sea Level Pressure  
Sea Level Pressure 30.19 in    
Wind  
Wind Speed 6 mph (WNW)    
Max Wind Speed 15 mph    
Max Gust Speed 17 mph    
Visibility 10 miles    
Events      
Averages and records for this station are not official NWS values.
T = Trace of Precipitation, MM = Missing Value Source: NWS Daily Summary

Daily Weather History Graph

Daily Weather History Graph

Search for Another Location

Airport or City:

Trip Planner

Search our weather history database for the weather conditions in past years. The results will help you decide how hot, cold, wet, or windy it might be!

Date:

Astronomy

Dec. 17, 2011 Rise Set
Actual Time 7:30 AM EST 5:07 PM EST
Civil Twilight 7:01 AM EST 5:36 PM EST
Nautical Twilight 6:28 AM EST 6:09 PM EST
Astronomical Twilight 5:56 AM EST 6:40 PM EST
Moon No Moon Rise 11:53 AM EST (12/17)
Length of Visible Light 10h 35m
Length of Day
9h 37m
Waning Gibbous, 54% of the Moon is Illuminated
Dec 17
Waning Gibbous
Dec 17
Last Quarter
Dec 24
New
Jan 1
First Quarter
Jan 9
Full

Hourly Weather History & Observations

Time (EST) Temp. Windchill Dew Point Humidity Pressure Visibility Wind Dir Wind Speed Gust Speed Precip Events Conditions
12:15 AM 39.2 °F 35.9 °F 37.4 °F 93% 30.16 in 10.0 mi WNW 4.6 mph - N/A   Mostly Cloudy
12:35 AM 39.2 °F - 37.4 °F 93% 30.16 in 10.0 mi Calm Calm - N/A   Overcast
12:55 AM 39.2 °F 35.0 °F 37.4 °F 93% 30.15 in 10.0 mi WNW 5.8 mph - N/A   Overcast
1:15 AM 39.2 °F 35.9 °F 37.4 °F 93% 30.16 in 10.0 mi West 4.6 mph - N/A   Overcast
1:35 AM 39.2 °F 37.0 °F 37.4 °F 93% 30.16 in 10.0 mi NW 3.5 mph - N/A   Overcast
1:55 AM 39.2 °F 33.6 °F 35.6 °F 87% 30.15 in 10.0 mi WNW 8.1 mph - N/A   Mostly Cloudy
2:15 AM 39.2 °F 35.9 °F 35.6 °F 87% 30.16 in 10.0 mi SE 4.6 mph - N/A   Scattered Clouds
2:35 AM 39.2 °F - 35.6 °F 87% 30.17 in 10.0 mi Calm Calm - N/A   Mostly Cloudy
2:55 AM 37.4 °F 32.1 °F 35.6 °F 93% 30.17 in 10.0 mi NW 6.9 mph - N/A   Mostly Cloudy
3:15 AM 37.4 °F 31.4 °F 35.6 °F 93% 30.16 in 10.0 mi WNW 8.1 mph - N/A   Mostly Cloudy
3:35 AM 37.4 °F 33.8 °F 35.6 °F 93% 30.17 in 10.0 mi NW 4.6 mph - N/A   Overcast
3:55 AM 37.4 °F - 35.6 °F 93% 30.17 in 10.0 mi Calm Calm - N/A   Overcast
4:15 AM 37.4 °F - 35.6 °F 93% 30.17 in 10.0 mi Calm Calm - N/A   Overcast
4:35 AM 37.4 °F 34.9 °F 33.8 °F 87% 30.17 in 10.0 mi West 3.5 mph - N/A   Overcast
4:55 AM 37.4 °F - 33.8 °F 87% 30.17 in 10.0 mi Calm Calm - N/A   Overcast
5:15 AM 35.6 °F 30.7 °F 32.0 °F 87% 30.18 in 10.0 mi WNW 5.8 mph - N/A   Overcast
5:35 AM 35.6 °F 31.7 °F 30.2 °F 81% 30.18 in 10.0 mi NW 4.6 mph - N/A   Overcast
5:55 AM 35.6 °F 29.2 °F 30.2 °F 81% 30.18 in 10.0 mi NNW 8.1 mph - N/A   Overcast
6:15 AM 33.8 °F 30.8 °F 28.4 °F 81% 30.19 in 10.0 mi WNW 3.5 mph - N/A   Overcast
6:35 AM 33.8 °F 27.7 °F 28.4 °F 81% 30.19 in 10.0 mi WNW 6.9 mph - N/A   Mostly Cloudy
6:55 AM 33.8 °F 27.7 °F 26.6 °F 75% 30.19 in 10.0 mi NW 6.9 mph - N/A   Scattered Clouds
7:15 AM 33.8 °F - 26.6 °F 75% 30.21 in 10.0 mi Calm Calm - N/A   Mostly Cloudy
8:15 AM 32.0 °F 25.6 °F 26.6 °F 80% 30.22 in 10.0 mi West 6.9 mph - N/A   Mostly Cloudy
8:35 AM 33.8 °F 26.4 °F 26.6 °F 75% 30.22 in 10.0 mi WNW 9.2 mph - N/A   Mostly Cloudy
8:55 AM 33.8 °F 27.0 °F 26.6 °F 75% 30.23 in 10.0 mi NW 8.1 mph - N/A   Mostly Cloudy
9:15 AM 33.8 °F 24.8 °F 24.8 °F 70% 30.23 in 10.0 mi NW 12.7 mph 16.1 mph N/A   Mostly Cloudy
9:35 AM 33.8 °F 27.0 °F 24.8 °F 70% 30.24 in 10.0 mi NW 8.1 mph 16.1 mph N/A   Mostly Cloudy
9:55 AM 33.8 °F 28.6 °F 26.6 °F 75% 30.24 in 10.0 mi West 5.8 mph - N/A   Overcast
10:15 AM 35.6 °F 29.2 °F 26.6 °F 70% 30.24 in 10.0 mi West 8.1 mph - N/A   Overcast
10:35 AM 33.8 °F 28.6 °F 26.6 °F 75% 30.23 in 10.0 mi WNW 5.8 mph - N/A   Overcast
10:55 AM 35.6 °F 27.5 °F 26.6 °F 70% 30.24 in 10.0 mi West 11.5 mph - N/A   Overcast
11:15 AM 33.8 °F 25.3 °F 24.8 °F 70% 30.24 in 10.0 mi WNW 11.5 mph 17.3 mph N/A   Mostly Cloudy
11:35 AM 33.8 °F 25.3 °F 26.6 °F 75% 30.22 in 10.0 mi WNW 11.5 mph - N/A   Mostly Cloudy
11:55 AM 35.6 °F 28.6 °F 26.6 °F 70% 30.22 in 10.0 mi WNW 9.2 mph - N/A   Mostly Cloudy
12:15 PM 35.6 °F 28.0 °F 26.6 °F 70% 30.20 in 10.0 mi WNW 10.4 mph 16.1 mph N/A   Scattered Clouds
12:35 PM 35.6 °F 27.5 °F 24.8 °F 65% 30.19 in 10.0 mi WNW 11.5 mph 17.3 mph N/A   Scattered Clouds
12:55 PM 35.6 °F 26.2 °F 24.8 °F 65% 30.18 in 10.0 mi WNW 15.0 mph - N/A   Clear
1:15 PM 37.4 °F 29.3 °F 24.8 °F 60% 30.17 in 10.0 mi WNW 12.7 mph - N/A   Clear
1:35 PM 37.4 °F 30.3 °F 24.8 °F 60% 30.17 in 10.0 mi NW 10.4 mph - N/A   Clear
1:55 PM 37.4 °F 30.3 °F 24.8 °F 60% 30.18 in 10.0 mi West 10.4 mph - N/A   Clear
2:15 PM 37.4 °F 29.3 °F 23.0 °F 56% 30.18 in 10.0 mi NW 12.7 mph - N/A   Clear
2:35 PM 37.4 °F 31.4 °F 24.8 °F 60% 30.18 in 10.0 mi West 8.1 mph - N/A   Clear
2:55 PM 39.2 °F 33.0 °F 24.8 °F 56% 30.17 in 10.0 mi WSW 9.2 mph - N/A   Scattered Clouds
3:15 PM 39.2 °F 32.0 °F 24.8 °F 56% 30.18 in 10.0 mi West 11.5 mph - N/A   Scattered Clouds
3:35 PM 37.4 °F 31.4 °F 24.8 °F 60% 30.18 in 10.0 mi West 8.1 mph - N/A   Clear
3:55 PM 37.4 °F 32.8 °F 24.8 °F 60% 30.17 in 10.0 mi West 5.8 mph - N/A   Clear
4:15 PM 37.4 °F 33.8 °F 23.0 °F 56% 30.17 in 10.0 mi WNW 4.6 mph - N/A   Clear
4:35 PM 37.4 °F 32.1 °F 23.0 °F 56% 30.17 in 10.0 mi WNW 6.9 mph - N/A   Clear
4:55 PM 35.6 °F 29.2 °F 21.2 °F 56% 30.18 in 10.0 mi WNW 8.1 mph - N/A   Clear
5:15 PM 35.6 °F 29.2 °F 21.2 °F 56% 30.18 in 10.0 mi NW 8.1 mph - N/A   Clear
5:35 PM 33.8 °F 28.6 °F 21.2 °F 60% 30.18 in 10.0 mi WNW 5.8 mph - N/A   Clear
5:55 PM 33.8 °F 30.8 °F 21.2 °F 60% 30.18 in 10.0 mi NW 3.5 mph - N/A   Clear
6:15 PM 33.8 °F - 21.2 °F 60% 30.18 in 10.0 mi Calm Calm - N/A   Clear
6:35 PM 33.8 °F 30.8 °F 21.2 °F 60% 30.18 in 10.0 mi NW 3.5 mph - N/A   Clear
6:55 PM 30.2 °F - 23.0 °F 75% 30.18 in 10.0 mi Calm Calm - N/A   Clear
7:15 PM 30.2 °F 25.4 °F 21.2 °F 69% 30.18 in 10.0 mi SW 4.6 mph - N/A   Clear
7:35 PM 30.2 °F 25.4 °F 21.2 °F 69% 30.19 in 10.0 mi SW 4.6 mph - N/A   Clear
7:55 PM 28.4 °F 22.2 °F 23.0 °F 80% 30.19 in 10.0 mi West 5.8 mph - N/A   Clear
8:15 PM 30.2 °F 26.7 °F 23.0 °F 75% 30.19 in 10.0 mi West 3.5 mph - N/A   Clear
8:35 PM 30.2 °F 26.7 °F 23.0 °F 75% 30.20 in 10.0 mi WNW 3.5 mph - N/A   Clear
8:55 PM 30.2 °F 25.4 °F 23.0 °F 75% 30.20 in 10.0 mi West 4.6 mph - N/A   Clear
9:15 PM 32.0 °F 24.8 °F 23.0 °F 69% 30.20 in 10.0 mi West 8.1 mph - N/A   Clear
9:35 PM 32.0 °F 24.8 °F 23.0 °F 69% 30.20 in 10.0 mi WSW 8.1 mph - N/A   Clear
9:55 PM 30.2 °F 22.6 °F 23.0 °F 75% 30.19 in 10.0 mi West 8.1 mph - N/A   Clear
10:15 PM 32.0 °F 23.6 °F 23.0 °F 69% 30.19 in 10.0 mi West 10.4 mph - N/A   Clear
10:35 PM 32.0 °F 24.8 °F 23.0 °F 69% 30.20 in 10.0 mi West 8.1 mph - N/A   Clear
10:55 PM 30.2 °F 25.4 °F 23.0 °F 75% 30.19 in 10.0 mi West 4.6 mph - N/A   Mostly Cloudy
11:15 PM 32.0 °F 26.4 °F 24.8 °F 75% 30.19 in 10.0 mi West 5.8 mph - N/A   Overcast
11:35 PM 32.0 °F 24.8 °F 24.8 °F 75% 30.19 in 10.0 mi West 8.1 mph - N/A   Overcast
11:55 PM 33.8 °F 27.7 °F 24.8 °F 70% 30.19 in 10.0 mi West 6.9 mph - N/A   Overcast